Simultaneous Nadir Overpasses (SNOs) Predictions

Prediction of SNOs between GOES-15 and METOP-B Satellite Orbit:

Table of predicted SNOs for the next 14.0 days since TLE Epoch: 10/17/2025
Index Date Time (GOES-15) GOES-15 Lat,Lon METOP-B Lat,Lon Distance(km) Time Diff (sec)
1 10/18/2025 05:11:21 0.64, 61.38 1.57, 57.21 474.89 80
2 10/19/2025 04:50:48 0.63, 61.38 0.45, 62.17 89.99 80
3 10/20/2025 17:12:38 -0.65, 61.52 -1.53, 57.54 453.30 80
4 10/21/2025 16:49:25 -0.64, 61.54 -0.41, 62.51 111.01 80
5 10/23/2025 05:08:28 0.66, 61.43 1.45, 57.90 402.05 80
6 10/24/2025 04:50:35 0.65, 61.44 0.33, 62.87 162.42 80
7 10/25/2025 17:09:44 -0.67, 61.59 -1.39, 58.24 381.61 80
8 10/26/2025 16:46:31 -0.67, 61.61 -0.32, 63.21 182.14 80
9 10/28/2025 05:05:33 0.68, 61.52 1.35, 58.61 332.55 80
10 10/29/2025 04:47:41 0.68, 61.54 0.22, 63.57 231.50 80
11 10/30/2025 17:06:49 -0.68, 61.69 -1.32, 58.95 312.81 80
12 10/31/2025 16:43:37 -0.68, 61.71 -0.18, 63.91 250.65 80
